Year,Month,Day,Hour,Minute,Value (Times are PST for windgust in km/hr)
2010,06,01,00,03,1.60
2010,06,01,00,04,3.20
2010,06,01,00,05,4.80
2010,06,01,00,06,6.40
2010,06,01,00,07,9.60
2010,06,01,00,08,9.60
2010,06,01,00,09,1.60
2010,06,01,00,10,6.40
2010,06,01,00,11,4.80
2010,06,01,00,12,6.40
2010,06,01,00,13,6.40
2010,06,01,00,14,4.80
2010,06,01,00,15,4.80
2010,06,01,00,16,3.20
2010,06,01,00,17,3.20
2010,06,01,00,18,4.80
2010,06,01,00,19,8.10
2010,06,01,00,20,3.20
2010,06,01,00,21,8.10
2010,06,01,00,22,3.20
2010,06,01,00,23,1.60
2010,06,01,00,24,6.40
2010,06,01,00,25,3.20
2010,06,01,00,26,3.20
2010,06,01,00,27,4.80
2010,06,01,00,28,8.10
2010,06,01,00,29,3.20
2010,06,01,00,30,3.20
2010,06,01,00,31,4.80
2010,06,01,00,32,9.60
2010,06,01,00,33,11.30
2010,06,01,00,34,4.80
2010,06,01,00,35,6.40
2010,06,01,00,36,4.80
2010,06,01,00,37,3.20
2010,06,01,00,38,4.80
2010,06,01,00,39,6.40
2010,06,01,00,40,3.20
2010,06,01,00,41,3.20
2010,06,01,00,42,3.20
2010,06,01,00,43,3.20
2010,06,01,00,44,3.20
2010,06,01,00,45,1.60
2010,06,01,00,48,1.60
2010,06,01,00,49,6.40
2010,06,01,00,50,1.60
2010,06,01,00,51,4.80
2010,06,01,00,52,1.60
2010,06,01,00,53,4.80
2010,06,01,00,54,1.60
2010,06,01,00,55,1.60
2010,06,01,00,56,1.60
2010,06,01,00,57,1.60
2010,06,01,00,59,4.80
2010,06,01,01,00,3.20
2010,06,01,01,14,4.80
2010,06,01,01,15,4.80
2010,06,01,01,16,1.60
2010,06,01,01,20,4.80
2010,06,01,01,21,6.40
2010,06,01,01,22,1.60
2010,06,01,01,23,1.60
2010,06,01,01,25,3.20
2010,06,01,01,26,3.20
2010,06,01,01,32,3.20
2010,06,01,01,33,1.60
2010,06,01,01,34,3.20
2010,06,01,01,35,1.60
2010,06,01,01,39,1.60
2010,06,01,01,40,3.20
2010,06,01,01,43,3.20
2010,06,01,01,48,6.40
2010,06,01,01,49,1.60
2010,06,01,01,51,3.20
2010,06,01,01,52,3.20
2010,06,01,01,53,6.40
2010,06,01,01,57,4.80
2010,06,01,01,58,6.40
2010,06,01,01,59,6.40
2010,06,01,02,00,6.40
2010,06,01,02,01,4.80
2010,06,01,02,02,8.10
2010,06,01,02,03,8.10
2010,06,01,02,04,8.10
2010,06,01,02,05,8.10
2010,06,01,02,06,1.60
2010,06,01,02,07,1.60
2010,06,01,02,08,1.60
2010,06,01,02,10,1.60
2010,06,01,02,11,3.20
2010,06,01,02,12,4.80
2010,06,01,02,13,1.60
2010,06,01,02,15,3.20
2010,06,01,02,16,1.60
2010,06,01,02,21,3.20
2010,06,01,02,22,1.60
2010,06,01,02,23,3.20
2010,06,01,02,24,4.80
2010,06,01,02,25,1.60
2010,06,01,02,26,1.60
2010,06,01,02,29,4.80
2010,06,01,02,30,4.80
2010,06,01,02,36,1.60
2010,06,01,02,37,1.60
2010,06,01,02,38,1.60
2010,06,01,02,40,1.60
2010,06,01,02,46,1.60
2010,06,01,02,47,3.20
2010,06,01,02,48,3.20
2010,06,01,02,49,3.20
2010,06,01,02,51,3.20
2010,06,01,02,52,1.60
2010,06,01,02,53,3.20
2010,06,01,02,54,4.80
2010,06,01,02,55,4.80
2010,06,01,02,56,3.20
2010,06,01,02,57,3.20
2010,06,01,02,59,3.20
2010,06,01,03,00,6.40
2010,06,01,03,01,6.40
2010,06,01,03,02,9.60
2010,06,01,03,03,8.10
2010,06,01,03,04,4.80
2010,06,01,03,05,4.80
2010,06,01,03,06,6.40
2010,06,01,03,07,8.10
2010,06,01,03,09,6.40
2010,06,01,03,10,6.40
2010,06,01,03,11,3.20
2010,06,01,03,12,4.80
2010,06,01,03,13,3.20
2010,06,01,03,14,6.40
2010,06,01,03,15,4.80
2010,06,01,03,16,6.40
2010,06,01,03,17,1.60
2010,06,01,03,20,1.60
2010,06,01,03,21,6.40
2010,06,01,03,22,4.80
2010,06,01,03,23,4.80
2010,06,01,03,24,1.60
2010,06,01,03,25,1.60
2010,06,01,03,27,3.20
2010,06,01,03,28,6.40
2010,06,01,03,34,3.20
2010,06,01,03,35,3.20
2010,06,01,03,37,1.60
2010,06,01,03,38,1.60
2010,06,01,03,40,3.20
2010,06,01,03,41,6.40
2010,06,01,03,42,3.20
2010,06,01,03,43,4.80
2010,06,01,03,44,9.60
2010,06,01,03,45,6.40
2010,06,01,03,46,8.10
2010,06,01,03,47,1.60
2010,06,01,03,48,3.20
2010,06,01,03,49,3.20
2010,06,01,03,50,1.60
2010,06,01,03,51,3.20
2010,06,01,03,52,8.10
2010,06,01,03,53,4.80
2010,06,01,03,56,6.40
2010,06,01,03,57,6.40
2010,06,01,03,58,3.20
2010,06,01,03,59,3.20
2010,06,01,04,01,8.10
2010,06,01,04,02,3.20
2010,06,01,04,03,4.80
2010,06,01,04,04,4.80
2010,06,01,04,05,4.80
2010,06,01,04,06,8.10
2010,06,01,04,08,4.80
2010,06,01,04,09,1.60
2010,06,01,04,10,4.80
2010,06,01,04,11,3.20
2010,06,01,04,12,4.80
2010,06,01,04,13,3.20
2010,06,01,04,14,4.80
2010,06,01,04,15,1.60
2010,06,01,04,16,4.80
2010,06,01,04,17,9.60
2010,06,01,04,18,6.40
2010,06,01,04,19,6.40
2010,06,01,04,20,8.10
2010,06,01,04,21,8.10
2010,06,01,04,22,4.80
2010,06,01,04,23,4.80
2010,06,01,04,24,1.60
2010,06,01,04,25,6.40
2010,06,01,04,26,6.40
2010,06,01,04,27,1.60
2010,06,01,04,28,1.60
2010,06,01,04,29,3.20
2010,06,01,04,31,1.60
2010,06,01,04,32,8.10
2010,06,01,04,33,1.60
2010,06,01,04,34,1.60
2010,06,01,04,35,3.20
2010,06,01,04,36,1.60
2010,06,01,04,39,3.20
2010,06,01,04,42,1.60
2010,06,01,04,43,1.60
2010,06,01,04,46,3.20
2010,06,01,04,47,1.60
2010,06,01,04,49,1.60
2010,06,01,04,51,1.60
2010,06,01,04,52,4.80
2010,06,01,04,53,9.60
2010,06,01,04,54,8.10
2010,06,01,04,55,4.80
2010,06,01,04,56,3.20
2010,06,01,05,05,1.60
2010,06,01,05,06,3.20
2010,06,01,05,07,6.40
2010,06,01,05,08,1.60
2010,06,01,05,09,1.60
2010,06,01,05,12,1.60
2010,06,01,05,13,3.20
2010,06,01,05,14,3.20
2010,06,01,05,15,4.80
2010,06,01,05,16,1.60
2010,06,01,05,17,3.20
2010,06,01,05,18,4.80
2010,06,01,05,19,3.20
2010,06,01,05,30,1.60
2010,06,01,05,31,1.60
2010,06,01,05,36,1.60
2010,06,01,05,37,1.60
2010,06,01,05,38,3.20
2010,06,01,05,39,1.60
2010,06,01,07,57,1.60
2010,06,01,08,00,1.60
2010,06,01,08,02,3.20
2010,06,01,08,03,4.80
2010,06,01,08,04,3.20
2010,06,01,08,05,1.60
2010,06,01,08,06,8.10
2010,06,01,08,07,12.90
2010,06,01,08,08,14.50
2010,06,01,08,09,14.50
2010,06,01,08,10,6.40
2010,06,01,08,11,9.60
2010,06,01,08,12,8.10
2010,06,01,08,13,9.60
2010,06,01,08,14,11.30
2010,06,01,08,15,11.30
2010,06,01,08,16,9.60
2010,06,01,08,17,9.60
2010,06,01,08,18,8.10
2010,06,01,08,19,6.40
2010,06,01,08,20,9.60
2010,06,01,08,21,6.40
2010,06,01,08,22,4.80
2010,06,01,08,23,6.40
2010,06,01,08,24,6.40
2010,06,01,08,25,3.20
2010,06,01,08,26,3.20
2010,06,01,08,27,6.40
2010,06,01,08,28,4.80
2010,06,01,08,29,4.80
2010,06,01,08,30,8.10
2010,06,01,08,31,9.60
2010,06,01,08,32,8.10
2010,06,01,08,33,4.80
2010,06,01,08,34,3.20
2010,06,01,08,35,6.40
2010,06,01,08,36,3.20
2010,06,01,08,37,4.80
2010,06,01,08,38,6.40
2010,06,01,08,39,9.60
2010,06,01,08,40,11.30
2010,06,01,08,41,9.60
2010,06,01,08,42,8.10
2010,06,01,08,43,8.10
2010,06,01,08,44,8.10
2010,06,01,08,45,6.40
2010,06,01,08,46,6.40
2010,06,01,08,47,6.40
2010,06,01,08,48,8.10
2010,06,01,08,49,6.40
2010,06,01,08,50,8.10
2010,06,01,08,51,11.30
2010,06,01,08,52,9.60
2010,06,01,08,53,11.30
2010,06,01,08,54,9.60
2010,06,01,08,55,9.60
2010,06,01,08,56,4.80
2010,06,01,08,57,9.60
2010,06,01,08,58,11.30
2010,06,01,08,59,8.10
2010,06,01,09,00,9.60
2010,06,01,09,01,9.60
2010,06,01,09,02,9.60
2010,06,01,09,03,11.30
2010,06,01,09,04,11.30
2010,06,01,09,05,14.50
2010,06,01,09,06,8.10
2010,06,01,09,07,11.30
2010,06,01,09,08,11.30
2010,06,01,09,09,8.10
2010,06,01,09,10,9.60
2010,06,01,09,11,9.60
2010,06,01,09,12,12.90
2010,06,01,09,13,8.10
2010,06,01,09,14,6.40
2010,06,01,09,15,1.60
2010,06,01,09,16,1.60
2010,06,01,09,17,8.10
2010,06,01,09,18,11.30
2010,06,01,09,19,11.30
2010,06,01,09,20,11.30
2010,06,01,09,21,9.60
2010,06,01,09,22,6.40
2010,06,01,09,23,11.30
2010,06,01,09,24,11.30
2010,06,01,09,25,6.40
2010,06,01,09,26,6.40
2010,06,01,09,27,11.30
2010,06,01,09,28,9.60
2010,06,01,09,29,9.60
2010,06,01,09,30,8.10
2010,06,01,09,31,6.40
2010,06,01,09,32,9.60
2010,06,01,09,33,6.40
2010,06,01,09,34,8.10
2010,06,01,09,35,8.10
2010,06,01,09,36,4.80
2010,06,01,09,37,8.10
2010,06,01,09,38,11.30
2010,06,01,09,39,9.60
2010,06,01,09,40,8.10
2010,06,01,09,41,8.10
2010,06,01,09,42,9.60
2010,06,01,09,43,9.60
2010,06,01,09,44,14.50
2010,06,01,09,45,14.50
2010,06,01,09,46,9.60
2010,06,01,09,47,9.60
2010,06,01,09,48,8.10
2010,06,01,09,49,9.60
2010,06,01,09,50,8.10
2010,06,01,09,51,8.10
2010,06,01,09,52,8.10
2010,06,01,09,53,8.10
2010,06,01,09,54,11.30
2010,06,01,09,55,11.30
2010,06,01,09,56,11.30
2010,06,01,09,57,9.60
2010,06,01,09,58,9.60
2010,06,01,09,59,16.10
2010,06,01,10,00,11.30
2010,06,01,10,01,9.60
2010,06,01,10,02,6.40
2010,06,01,10,03,8.10
2010,06,01,10,04,6.40
2010,06,01,10,05,14.50
2010,06,01,10,06,12.90
2010,06,01,10,07,8.10
2010,06,01,10,08,8.10
2010,06,01,10,09,9.60
2010,06,01,10,10,8.10
2010,06,01,10,11,8.10
2010,06,01,10,12,9.60
2010,06,01,10,13,9.60
2010,06,01,10,14,8.10
2010,06,01,10,15,8.10
2010,06,01,10,16,3.20
2010,06,01,10,17,8.10
2010,06,01,10,18,9.60
2010,06,01,10,19,11.30
2010,06,01,10,20,8.10
2010,06,01,10,21,8.10
2010,06,01,10,22,6.40
2010,06,01,10,23,8.10
2010,06,01,10,24,6.40
2010,06,01,10,25,9.60
2010,06,01,10,26,8.10
2010,06,01,10,27,9.60
2010,06,01,10,28,9.60
2010,06,01,10,29,4.80
2010,06,01,10,30,9.60
2010,06,01,10,31,11.30
2010,06,01,10,32,11.30
2010,06,01,10,33,8.10
2010,06,01,10,34,8.10
2010,06,01,10,35,11.30
2010,06,01,10,36,9.60
2010,06,01,10,37,9.60
2010,06,01,10,38,8.10
2010,06,01,10,39,8.10
2010,06,01,10,40,9.60
2010,06,01,10,41,9.60
2010,06,01,10,42,9.60
2010,06,01,10,43,11.30
2010,06,01,10,44,9.60
2010,06,01,10,45,8.10
2010,06,01,10,46,17.70
2010,06,01,10,47,16.10
2010,06,01,10,48,11.30
2010,06,01,10,49,6.40
2010,06,01,10,50,14.50
2010,06,01,10,51,16.10
2010,06,01,10,52,8.10
2010,06,01,10,53,14.50
2010,06,01,10,54,12.90
2010,06,01,10,55,11.30
2010,06,01,10,56,14.50
2010,06,01,10,57,11.30
2010,06,01,10,58,9.60
2010,06,01,10,59,6.40
2010,06,01,11,00,8.10
2010,06,01,11,01,14.50
2010,06,01,11,02,12.90
2010,06,01,11,03,11.30
2010,06,01,11,04,11.30
2010,06,01,11,05,14.50
2010,06,01,11,06,16.10
2010,06,01,11,07,11.30
2010,06,01,11,08,9.60
2010,06,01,11,09,9.60
2010,06,01,11,10,6.40
2010,06,01,11,11,11.30
2010,06,01,11,12,11.30
2010,06,01,11,13,9.60
2010,06,01,11,14,8.10
2010,06,01,11,15,6.40
2010,06,01,11,16,8.10
2010,06,01,11,17,8.10
2010,06,01,11,18,9.60
2010,06,01,11,19,14.50
2010,06,01,11,20,9.60
2010,06,01,11,21,9.60
2010,06,01,11,22,11.30
2010,06,01,11,23,14.50
2010,06,01,11,24,9.60
2010,06,01,11,25,8.10
2010,06,01,11,26,8.10
2010,06,01,11,27,11.30
2010,06,01,11,28,4.80
2010,06,01,11,29,9.60
2010,06,01,11,30,8.10
2010,06,01,11,31,9.60
2010,06,01,11,32,3.20
2010,06,01,11,33,6.40
2010,06,01,11,34,6.40
2010,06,01,11,35,6.40
2010,06,01,11,36,8.10
2010,06,01,11,37,8.10
2010,06,01,11,38,12.90
2010,06,01,11,39,16.10
2010,06,01,11,40,16.10
2010,06,01,11,41,14.50
2010,06,01,11,42,11.30
2010,06,01,11,43,16.10
2010,06,01,11,44,11.30
2010,06,01,11,45,8.10
2010,06,01,11,46,8.10
2010,06,01,11,47,9.60
2010,06,01,11,48,11.30
2010,06,01,11,49,9.60
2010,06,01,11,50,12.90
2010,06,01,11,51,12.90
2010,06,01,11,52,14.50
2010,06,01,11,53,11.30
2010,06,01,11,54,11.30
2010,06,01,11,55,6.40
2010,06,01,11,56,17.70
2010,06,01,11,57,17.70
2010,06,01,11,58,11.30
2010,06,01,11,59,6.40
2010,06,01,12,00,9.60
2010,06,01,12,01,16.10
2010,06,01,12,02,11.30
2010,06,01,12,03,9.60
2010,06,01,12,04,11.30
2010,06,01,12,05,9.60
2010,06,01,12,06,16.10
2010,06,01,12,07,11.30
2010,06,01,12,08,14.50
2010,06,01,12,09,14.50
2010,06,01,12,10,14.50
2010,06,01,12,11,14.50
2010,06,01,12,12,14.50
2010,06,01,12,13,17.70
2010,06,01,12,14,14.50
2010,06,01,12,15,16.10
2010,06,01,12,16,14.50
2010,06,01,12,17,11.30
2010,06,01,12,18,6.40
2010,06,01,12,19,11.30
2010,06,01,12,20,11.30
2010,06,01,12,21,8.10
2010,06,01,12,22,9.60
2010,06,01,12,23,8.10
2010,06,01,12,24,6.40
2010,06,01,12,25,11.30
2010,06,01,12,26,14.50
2010,06,01,12,27,12.90
2010,06,01,12,28,8.10
2010,06,01,12,29,8.10
2010,06,01,12,30,11.30
2010,06,01,12,31,9.60
2010,06,01,12,32,6.40
2010,06,01,12,33,6.40
2010,06,01,12,34,16.10
2010,06,01,12,35,9.60
2010,06,01,12,36,11.30
2010,06,01,12,37,14.50
2010,06,01,12,38,9.60
2010,06,01,12,39,14.50
2010,06,01,12,40,14.50
2010,06,01,12,41,14.50
2010,06,01,12,42,12.90
2010,06,01,12,43,14.50
2010,06,01,12,44,14.50
2010,06,01,12,45,11.30
2010,06,01,12,46,11.30
2010,06,01,12,47,6.40
2010,06,01,12,48,14.50
2010,06,01,12,49,14.50
2010,06,01,12,50,9.60
2010,06,01,12,51,11.30
2010,06,01,12,52,6.40
2010,06,01,12,53,17.70
2010,06,01,12,54,16.10
2010,06,01,12,55,11.30
2010,06,01,12,56,9.60
2010,06,01,12,57,17.70
2010,06,01,12,58,14.50
2010,06,01,12,59,14.50
2010,06,01,13,00,9.60
2010,06,01,13,01,16.10
2010,06,01,13,02,8.10
2010,06,01,13,03,6.40
2010,06,01,13,04,9.60
2010,06,01,13,05,14.50
2010,06,01,13,06,16.10
2010,06,01,13,07,14.50
2010,06,01,13,08,11.30
2010,06,01,13,09,11.30
2010,06,01,13,10,11.30
2010,06,01,13,11,9.60
2010,06,01,13,12,8.10
2010,06,01,13,13,14.50
2010,06,01,13,14,16.10
2010,06,01,13,15,9.60
2010,06,01,13,16,9.60
2010,06,01,13,17,11.30
2010,06,01,13,18,9.60
2010,06,01,13,19,11.30
2010,06,01,13,20,11.30
2010,06,01,13,21,8.10
2010,06,01,13,22,11.30
2010,06,01,13,23,6.40
2010,06,01,13,24,9.60
2010,06,01,13,25,11.30
2010,06,01,13,26,17.70
2010,06,01,13,27,11.30
2010,06,01,13,28,16.10
2010,06,01,13,29,16.10
2010,06,01,13,30,14.50
2010,06,01,13,31,14.50
2010,06,01,13,32,11.30
2010,06,01,13,33,9.60
2010,06,01,13,34,11.30
2010,06,01,13,35,8.10
2010,06,01,13,36,9.60
2010,06,01,13,37,14.50
2010,06,01,13,38,14.50
2010,06,01,13,39,12.90
2010,06,01,13,40,11.30
2010,06,01,13,41,11.30
2010,06,01,13,42,16.10
2010,06,01,13,43,14.50
2010,06,01,13,44,16.10
2010,06,01,13,45,14.50
2010,06,01,13,46,17.70
2010,06,01,13,47,16.10
2010,06,01,13,48,12.90
2010,06,01,13,49,14.50
2010,06,01,13,50,14.50
2010,06,01,13,51,11.30
2010,06,01,13,52,12.90
2010,06,01,13,53,14.50
2010,06,01,13,54,8.10
2010,06,01,13,55,11.30
2010,06,01,13,56,14.50
2010,06,01,13,57,11.30
2010,06,01,13,58,16.10
2010,06,01,13,59,8.10
2010,06,01,14,00,12.90
2010,06,01,14,01,11.30
2010,06,01,14,02,11.30
2010,06,01,14,03,17.70
2010,06,01,14,04,9.60
2010,06,01,14,05,9.60
2010,06,01,14,06,9.60
2010,06,01,14,07,11.30
2010,06,01,14,08,9.60
2010,06,01,14,09,8.10
2010,06,01,14,10,11.30
2010,06,01,14,11,11.30
2010,06,01,14,12,11.30
2010,06,01,14,13,16.10
2010,06,01,14,14,11.30
2010,06,01,14,15,11.30
2010,06,01,14,16,14.50
2010,06,01,14,17,17.70
2010,06,01,14,18,9.60
2010,06,01,14,19,9.60
2010,06,01,14,20,11.30
2010,06,01,14,21,8.10
2010,06,01,14,22,19.30
2010,06,01,14,23,9.60
2010,06,01,14,24,16.10
2010,06,01,14,25,14.50
2010,06,01,14,26,11.30
2010,06,01,14,27,14.50
2010,06,01,14,28,14.50
2010,06,01,14,29,9.60
2010,06,01,14,30,9.60
2010,06,01,14,31,14.50
2010,06,01,14,32,17.70
2010,06,01,14,33,17.70
2010,06,01,14,34,8.10
2010,06,01,14,35,11.30
2010,06,01,14,36,9.60
2010,06,01,14,37,9.60
2010,06,01,14,38,12.90
2010,06,01,14,39,8.10
2010,06,01,14,40,4.80
2010,06,01,14,41,9.60
2010,06,01,14,42,14.50
2010,06,01,14,43,12.90
2010,06,01,14,44,8.10
2010,06,01,14,45,16.10
2010,06,01,14,46,14.50
2010,06,01,14,47,9.60
2010,06,01,14,48,9.60
2010,06,01,14,49,8.10
2010,06,01,14,50,12.90
2010,06,01,14,51,11.30
2010,06,01,14,52,9.60
2010,06,01,14,53,9.60
2010,06,01,14,54,14.50
2010,06,01,14,55,16.10
2010,06,01,14,56,8.10
2010,06,01,14,57,9.60
2010,06,01,14,58,16.10
2010,06,01,14,59,6.40
2010,06,01,15,00,16.10
2010,06,01,15,01,16.10
2010,06,01,15,02,11.30
2010,06,01,15,03,8.10
2010,06,01,15,04,4.80
2010,06,01,15,05,16.10
2010,06,01,15,06,11.30
2010,06,01,15,07,16.10
2010,06,01,15,08,17.70
2010,06,01,15,09,16.10
2010,06,01,15,10,16.10
2010,06,01,15,11,16.10
2010,06,01,15,12,11.30
2010,06,01,15,13,11.30
2010,06,01,15,14,11.30
2010,06,01,15,15,8.10
2010,06,01,15,16,6.40
2010,06,01,15,17,11.30
2010,06,01,15,18,9.60
2010,06,01,15,19,14.50
2010,06,01,15,20,14.50
2010,06,01,15,21,6.40
2010,06,01,15,22,14.50
2010,06,01,15,23,16.10
2010,06,01,15,24,11.30
2010,06,01,15,25,11.30
2010,06,01,15,26,20.90
2010,06,01,15,27,11.30
2010,06,01,15,28,11.30
2010,06,01,15,29,14.50
2010,06,01,15,30,14.50
2010,06,01,15,31,8.10
2010,06,01,15,32,11.30
2010,06,01,15,33,4.80
2010,06,01,15,34,11.30
2010,06,01,15,35,16.10
2010,06,01,15,36,16.10
2010,06,01,15,37,11.30
2010,06,01,15,38,9.60
2010,06,01,15,39,6.40
2010,06,01,15,40,6.40
2010,06,01,15,41,9.60
2010,06,01,15,42,6.40
2010,06,01,15,43,9.60
2010,06,01,15,44,11.30
2010,06,01,15,45,14.50
2010,06,01,15,46,14.50
2010,06,01,15,47,9.60
2010,06,01,15,48,3.20
2010,06,01,15,49,14.50
2010,06,01,15,50,9.60
2010,06,01,15,51,8.10
2010,06,01,15,52,8.10
2010,06,01,15,53,12.90
2010,06,01,15,54,11.30
2010,06,01,15,55,8.10
2010,06,01,15,56,6.40
2010,06,01,15,57,9.60
2010,06,01,15,58,11.30
2010,06,01,15,59,12.90
2010,06,01,16,00,11.30
2010,06,01,16,01,11.30
2010,06,01,16,02,9.60
2010,06,01,16,03,6.40
2010,06,01,16,04,9.60
2010,06,01,16,05,8.10
2010,06,01,16,06,9.60
2010,06,01,16,07,9.60
2010,06,01,16,08,9.60
2010,06,01,16,09,9.60
2010,06,01,16,10,8.10
2010,06,01,16,11,6.40
2010,06,01,16,12,11.30
2010,06,01,16,13,11.30
2010,06,01,16,14,9.60
2010,06,01,16,15,8.10
2010,06,01,16,16,9.60
2010,06,01,16,17,9.60
2010,06,01,16,18,8.10
2010,06,01,16,19,6.40
2010,06,01,16,20,6.40
2010,06,01,16,21,11.30
2010,06,01,16,22,9.60
2010,06,01,16,23,8.10
2010,06,01,16,24,9.60
2010,06,01,16,25,8.10
2010,06,01,16,26,6.40
2010,06,01,16,27,9.60
2010,06,01,16,28,14.50
2010,06,01,16,29,8.10
2010,06,01,16,30,4.80
2010,06,01,16,31,11.30
2010,06,01,16,32,9.60
2010,06,01,16,33,8.10
2010,06,01,16,34,8.10
2010,06,01,16,35,11.30
2010,06,01,16,36,9.60
2010,06,01,16,37,8.10
2010,06,01,16,38,9.60
2010,06,01,16,39,8.10
2010,06,01,16,40,6.40
2010,06,01,16,41,6.40
2010,06,01,16,42,6.40
2010,06,01,16,43,9.60
2010,06,01,16,44,6.40
2010,06,01,16,45,6.40
2010,06,01,16,46,6.40
2010,06,01,16,47,6.40
2010,06,01,16,48,6.40
2010,06,01,16,49,1.60
2010,06,01,16,50,8.10
2010,06,01,16,51,8.10
2010,06,01,16,52,4.80
2010,06,01,16,53,6.40
2010,06,01,16,54,4.80
2010,06,01,16,55,6.40
2010,06,01,16,56,4.80
2010,06,01,16,57,8.10
2010,06,01,16,58,6.40
2010,06,01,16,59,6.40
2010,06,01,17,00,8.10
2010,06,01,17,01,6.40
2010,06,01,17,02,9.60
2010,06,01,17,03,4.80
2010,06,01,17,04,3.20
2010,06,01,17,05,8.10
2010,06,01,17,06,8.10
2010,06,01,17,07,3.20
2010,06,01,17,08,4.80
2010,06,01,17,09,8.10
2010,06,01,17,10,4.80
2010,06,01,17,11,9.60
2010,06,01,17,12,8.10
2010,06,01,17,13,6.40
2010,06,01,17,14,11.30
2010,06,01,17,15,11.30
2010,06,01,17,16,9.60
2010,06,01,17,17,11.30
2010,06,01,17,18,9.60
2010,06,01,17,19,8.10
2010,06,01,17,20,8.10
2010,06,01,17,21,6.40
2010,06,01,17,22,8.10
2010,06,01,17,23,6.40
2010,06,01,17,24,1.60
2010,06,01,17,25,4.80
2010,06,01,17,26,8.10
2010,06,01,17,27,8.10
2010,06,01,17,28,8.10
2010,06,01,17,29,6.40
2010,06,01,17,30,9.60
2010,06,01,17,31,8.10
2010,06,01,17,32,4.80
2010,06,01,17,33,6.40
2010,06,01,17,34,9.60
2010,06,01,17,35,8.10
2010,06,01,17,36,8.10
2010,06,01,17,37,4.80
2010,06,01,17,38,4.80
2010,06,01,17,39,3.20
2010,06,01,17,40,6.40
2010,06,01,17,41,6.40
2010,06,01,17,42,6.40
2010,06,01,17,43,4.80
2010,06,01,17,44,1.60
2010,06,01,17,45,1.60
2010,06,01,17,46,1.60
2010,06,01,17,47,1.60
2010,06,01,17,48,4.80
2010,06,01,17,49,6.40
2010,06,01,17,50,3.20
2010,06,01,17,51,11.30
2010,06,01,17,52,9.60
2010,06,01,17,53,8.10
2010,06,01,17,54,4.80
2010,06,01,17,55,4.80
2010,06,01,17,56,11.30
2010,06,01,17,57,9.60
2010,06,01,17,58,11.30
2010,06,01,17,59,6.40
2010,06,01,18,00,9.60
2010,06,01,18,01,9.60
2010,06,01,18,02,6.40
2010,06,01,18,03,8.10
2010,06,01,18,04,8.10
2010,06,01,18,05,8.10
2010,06,01,18,06,8.10
2010,06,01,18,07,9.60
2010,06,01,18,08,4.80
2010,06,01,18,09,6.40
2010,06,01,18,10,8.10
2010,06,01,18,11,4.80
2010,06,01,18,12,8.10
2010,06,01,18,13,8.10
2010,06,01,18,14,6.40
2010,06,01,18,15,8.10
2010,06,01,18,16,3.20
2010,06,01,18,17,6.40
2010,06,01,18,18,9.60
2010,06,01,18,19,3.20
2010,06,01,18,20,4.80
2010,06,01,18,21,6.40
2010,06,01,18,22,9.60
2010,06,01,18,23,1.60
2010,06,01,18,25,4.80
2010,06,01,18,26,6.40
2010,06,01,18,27,4.80
2010,06,01,18,28,3.20
2010,06,01,18,29,1.60
2010,06,01,18,30,3.20
2010,06,01,18,31,1.60
2010,06,01,18,32,8.10
2010,06,01,18,33,6.40
2010,06,01,18,34,11.30
2010,06,01,18,35,9.60
2010,06,01,18,36,6.40
2010,06,01,18,37,8.10
2010,06,01,18,38,8.10
2010,06,01,18,39,4.80
2010,06,01,18,40,8.10
2010,06,01,18,41,6.40
2010,06,01,18,42,6.40
2010,06,01,18,43,6.40
2010,06,01,18,44,4.80
2010,06,01,18,46,1.60
2010,06,01,18,47,6.40
2010,06,01,18,48,6.40
2010,06,01,18,49,6.40
2010,06,01,18,50,9.60
2010,06,01,18,51,6.40
2010,06,01,18,52,9.60
2010,06,01,18,53,9.60
2010,06,01,18,54,12.90
2010,06,01,18,55,14.50
2010,06,01,18,56,9.60
2010,06,01,18,57,11.30
2010,06,01,18,58,11.30
2010,06,01,18,59,6.40
2010,06,01,19,00,9.60
2010,06,01,19,01,11.30
2010,06,01,19,02,11.30
2010,06,01,19,03,8.10
2010,06,01,19,04,8.10
2010,06,01,19,05,8.10
2010,06,01,19,06,9.60
2010,06,01,19,07,11.30
2010,06,01,19,08,6.40
2010,06,01,19,09,4.80
2010,06,01,19,10,8.10
2010,06,01,19,11,8.10
2010,06,01,19,12,8.10
2010,06,01,19,13,9.60
2010,06,01,19,14,8.10
2010,06,01,19,15,3.20
2010,06,01,19,16,4.80
2010,06,01,19,17,6.40
2010,06,01,19,18,6.40
2010,06,01,19,19,16.10
2010,06,01,19,20,17.70
2010,06,01,19,21,9.60
2010,06,01,19,22,16.10
2010,06,01,19,23,14.50
2010,06,01,19,24,11.30
2010,06,01,19,25,6.40
2010,06,01,19,26,14.50
2010,06,01,19,27,9.60
2010,06,01,19,28,9.60
2010,06,01,19,29,8.10
2010,06,01,19,30,9.60
2010,06,01,19,31,14.50
2010,06,01,19,32,8.10
2010,06,01,19,33,4.80
2010,06,01,19,34,9.60
2010,06,01,19,35,8.10
2010,06,01,19,36,11.30
2010,06,01,19,37,11.30
2010,06,01,19,38,9.60
2010,06,01,19,39,6.40
2010,06,01,19,40,9.60
2010,06,01,19,41,9.60
2010,06,01,19,42,11.30
2010,06,01,19,43,12.90
2010,06,01,19,44,6.40
2010,06,01,19,45,8.10
2010,06,01,19,46,9.60
2010,06,01,19,47,14.50
2010,06,01,19,48,8.10
2010,06,01,19,49,8.10
2010,06,01,19,50,9.60
2010,06,01,19,51,6.40
2010,06,01,19,52,9.60
2010,06,01,19,53,8.10
2010,06,01,19,54,16.10
2010,06,01,19,55,11.30
2010,06,01,19,56,11.30
2010,06,01,19,57,8.10
2010,06,01,19,58,9.60
2010,06,01,19,59,11.30
2010,06,01,20,00,6.40
2010,06,01,20,01,8.10
2010,06,01,20,02,6.40
2010,06,01,20,03,11.30
2010,06,01,20,04,9.60
2010,06,01,20,05,6.40
2010,06,01,20,06,8.10
2010,06,01,20,07,9.60
2010,06,01,20,08,11.30
2010,06,01,20,09,4.80
2010,06,01,20,10,11.30
2010,06,01,20,11,19.30
2010,06,01,20,12,8.10
2010,06,01,20,13,6.40
2010,06,01,20,14,8.10
2010,06,01,20,15,8.10
2010,06,01,20,16,9.60
2010,06,01,20,17,8.10
2010,06,01,20,18,14.50
2010,06,01,20,19,8.10
2010,06,01,20,20,6.40
2010,06,01,20,21,6.40
2010,06,01,20,22,8.10
2010,06,01,20,23,6.40
2010,06,01,20,24,16.10
2010,06,01,20,25,9.60
2010,06,01,20,26,11.30
2010,06,01,20,27,11.30
2010,06,01,20,28,11.30
2010,06,01,20,29,8.10
2010,06,01,20,30,9.60
2010,06,01,20,31,17.70
2010,06,01,20,32,11.30
2010,06,01,20,33,11.30
2010,06,01,20,34,3.20
2010,06,01,20,35,8.10
2010,06,01,20,36,6.40
2010,06,01,20,37,11.30
2010,06,01,20,38,9.60
2010,06,01,20,39,12.90
2010,06,01,20,40,11.30
2010,06,01,20,41,11.30
2010,06,01,20,42,11.30
2010,06,01,20,43,11.30
2010,06,01,20,44,8.10
2010,06,01,20,45,8.10
2010,06,01,20,46,14.50
2010,06,01,20,47,14.50
2010,06,01,20,48,19.30
2010,06,01,20,49,17.70
2010,06,01,20,50,16.10
2010,06,01,20,51,11.30
2010,06,01,20,52,17.70
2010,06,01,20,53,9.60
2010,06,01,20,54,14.50
2010,06,01,20,55,14.50
2010,06,01,20,56,22.50
2010,06,01,20,57,11.30
2010,06,01,20,58,17.70
2010,06,01,20,59,16.10
2010,06,01,21,00,11.30
2010,06,01,21,01,14.50
2010,06,01,21,02,14.50
2010,06,01,21,03,9.60
2010,06,01,21,04,16.10
2010,06,01,21,05,14.50
2010,06,01,21,06,19.30
2010,06,01,21,07,16.10
2010,06,01,21,08,20.90
2010,06,01,21,09,17.70
2010,06,01,21,10,17.70
2010,06,01,21,11,17.70
2010,06,01,21,12,17.70
2010,06,01,21,13,11.30
2010,06,01,21,14,16.10
2010,06,01,21,15,11.30
2010,06,01,21,16,14.50
2010,06,01,21,17,17.70
2010,06,01,21,18,16.10
2010,06,01,21,19,16.10
2010,06,01,21,20,16.10
2010,06,01,21,21,11.30
2010,06,01,21,22,14.50
2010,06,01,21,23,16.10
2010,06,01,21,24,9.60
2010,06,01,21,25,9.60
2010,06,01,21,26,14.50
2010,06,01,21,27,11.30
2010,06,01,21,28,11.30
2010,06,01,21,29,16.10
2010,06,01,21,30,19.30
2010,06,01,21,31,16.10
2010,06,01,21,32,16.10
2010,06,01,21,33,9.60
2010,06,01,21,34,9.60
2010,06,01,21,35,11.30
2010,06,01,21,36,14.50
2010,06,01,21,37,9.60
2010,06,01,21,38,11.30
2010,06,01,21,39,14.50
2010,06,01,21,40,20.90
2010,06,01,21,41,16.10
2010,06,01,21,42,9.60
2010,06,01,21,43,8.10
2010,06,01,21,44,11.30
2010,06,01,21,45,19.30
2010,06,01,21,46,19.30
2010,06,01,21,47,17.70
2010,06,01,21,48,17.70
2010,06,01,21,49,16.10
2010,06,01,21,50,11.30
2010,06,01,21,51,16.10
2010,06,01,21,52,16.10
2010,06,01,21,53,14.50
2010,06,01,21,54,11.30
2010,06,01,21,55,16.10
2010,06,01,21,56,17.70
2010,06,01,21,57,12.90
2010,06,01,21,58,11.30
2010,06,01,21,59,17.70
2010,06,01,22,00,9.60
2010,06,01,22,01,25.70
2010,06,01,22,02,8.10